Flag for Germany Weather past 2 weeks in Filderstadt, Baden-Württemberg, Germany

Now
60 °F

Sprinkles. Low clouds.


Feels Like: 60 °F
Forecast: 40 / 55 °F
Wind: 1 mph from Southwest

Location: Stuttgart-Echterdingen

Current Time: Sep 21, 2014 at 8:15:08 AM

Latest Report: Sep 21, 2014 at 7:00 AM


Visibility: 9 mi

Pressure: 29.98 "Hg

Humidity: 93%

Dew point: 58 °F

Location of FilderstadtLocation

Historic Weather in Filderstadt — Graph

°F

Filderstadt temperature yesterday

Maximum temperature yesterday: 72 °F (at 1:00 PM)
Minimum temperature yesterday: 60 °F (at 3:00 AM)
Average temperature yesterday: 64 °F

Past Weeks' High & Low Weather Summary

 TemperatureHumidityPressure
High76 °F (Sep 6, 3:00 PM)99% (Sep 7, 7:00 AM)30.16 "Hg (Sep 7, 7:00 AM)
Low51 °F (Sep 17, 6:00 AM)51% (Sep 9, 4:00 PM)29.83 "Hg (Sep 17, 5:00 PM)
Average62 °F83%29.99 "Hg
* Reported Sep 6 7:00 AM — Sep 21 7:00 AM, Filderstadt, Weather by CustomWeather, © 2014

Note: Actual official high and low records may vary slightly from our data, if they occured in-between our weather recording intervals... More about our weather records

Advertising

Filderstadt weather history for previous 24 hours

 ConditionsComfort  
Time TempWeatherWind HumidityBarometerVisibility
7:00 AM
Sep 21
60 °FSprinkles. Low clouds.1 mph93%29.98 "Hg9 mi
6:00 AM59 °FLow clouds.1 mph94%29.98 "Hg10 mi
4:00 AM60 °FRain. Low clouds.2 mph95%29.99 "Hg6 mi
3:00 AM57 °FFog.3 mph97%30.01 "Hg12 mi
2:00 AM58 °FFog.1 mph92%30.01 "Hg16 mi
1:00 AM58 °FFog.1 mph94%30.01 "Hg28 mi
12:00 AM59 °FPassing clouds.1 mph94%30.01 "Hg37 mi
10:00 PM
Sep 20
61 °FPassing clouds.1 mph92%30.01 "Hg37 mi
9:00 PM64 °FPassing clouds.1 mph88%30.00 "Hg37 mi
8:00 PM66 °FPassing clouds.1 mph83%29.97 "Hg40 mi
3:00 PM68 °FThundershowers. Overcast.2 mph80%29.98 "Hg19 mi
2:00 PM70 °FSprinkles. Overcast.2 mph64%29.98 "Hg43 mi
1:00 PM72 °FScattered clouds.2 mph61%29.98 "Hg37 mi
12:00 PM69 °FScattered clouds.2 mph70%29.98 "Hg37 mi
11:00 AM67 °FScattered clouds.2 mph79%29.98 "Hg28 mi
10:00 AM64 °FPartly sunny.1 mph82%29.98 "Hg28 mi
9:00 AM63 °FSprinkles. Overcast.1 mph87%29.98 "Hg22 mi
8:00 AM61 °FSprinkles. Overcast.1 mph94%29.98 "Hg22 mi
Weather by CustomWeather, © 2014

See weather overviewHow to use our weather pages